Weather History for Trabzon, Turkey

Change the Weather History Date:

Sunday, January 5, 2014

  Actual Average Record
Temperature  
Mean Temperature 46 °F -  
Max Temperature 51 °F 49 °F 62 °F (2004)
Min Temperature 41 °F 39 °F 37 °F (2002)
Degree Days  
Heating Degree Days 19    
Moisture  
Dew Point 41 °F    
Average Humidity 79    
Maximum Humidity 87    
Minimum Humidity 60    
Precipitation  
Precipitation 0.00 in - - ()
Sea Level Pressure  
Sea Level Pressure 30.30 in    
Wind  
Wind Speed 3 mph ()    
Max Wind Speed 7 mph    
Max Gust Speed 18 mph    
Visibility 5.8 miles    
Events      
Averages and records for this station are not official NWS values.
T = Trace of Precipitation, MM = Missing Value Source: Averaged Metar Reports

Daily Weather History Graph

Daily Weather History Graph

Search for Another Location

Airport:

Trip Planner

Search our weather history database for the weather conditions in past years. The results will help you decide how hot, cold, wet, or windy it might be!

Date:

Astronomy

Jan. 05, 2014 Rise Set
Actual Time 6:45 AM EET 4:06 PM EET
Civil Twilight 6:15 AM EET 4:37 PM EET
Nautical Twilight 5:40 AM EET 5:11 PM EET
Astronomical Twilight 5:07 AM EET 5:45 PM EET
Moon 9:12 AM EET (1/5) 9:12 PM EET (1/5)
Length of Visible Light 10h 22m
Length of Day
9h 20m
Waxing Crescent, 21% of the Moon is Illuminated
Jan 5
Waxing Crescent
Jan 8
First Quarter
Jan 16
Full
Jan 24
Last Quarter
Jan 30
New

Hourly Weather History & Observations

Time (EET) Temp. Windchill Dew Point Humidity Pressure Visibility Wind Dir Wind Speed Gust Speed Precip Events Conditions
12:20 AM 46.4 °F - 42.8 °F 87% 30.30 in 4.3 mi Calm Calm - N/A   Scattered Clouds
12:50 AM 46.4 °F - 42.8 °F 87% 30.30 in 4.3 mi Variable 2.3 mph - N/A   Scattered Clouds
1:20 AM 46.4 °F - 42.8 °F 87% 30.30 in 4.3 mi South 2.3 mph - N/A   Scattered Clouds
1:50 AM 44.6 °F - 41.0 °F 87% 30.33 in 4.3 mi Calm Calm - N/A   Scattered Clouds
2:00 AM 45 °F - 42 °F 83% 30.34 in 4 mi Calm Calm - -   Mist
2:20 AM 44.6 °F 42.2 °F 41.0 °F 87% 30.33 in 4.3 mi South 4.6 mph - N/A   Scattered Clouds
2:50 AM 44.6 °F 43.1 °F 41.0 °F 87% 30.30 in 6.2 mi SW 3.5 mph - N/A   Scattered Clouds
3:20 AM 44.6 °F - 41.0 °F 87% 30.30 in 5.6 mi Calm Calm - N/A   Scattered Clouds
3:50 AM 42.8 °F 39.3 °F 39.2 °F 87% 30.30 in 5.6 mi SSW 5.8 mph - N/A   Scattered Clouds
4:20 AM 44.6 °F - 41.0 °F 87% 30.30 in 6.2 mi Variable 1.2 mph - N/A   Scattered Clouds
4:50 AM 44.6 °F - 39.2 °F 81% 30.30 in 6.2 mi South 2.3 mph - N/A   Scattered Clouds
5:00 AM 44 °F - 40 °F 79% 30.32 in 6 mi South 2.3 mph - -   Partly Cloudy
5:20 AM 42.8 °F 40.1 °F 39.2 °F 87% 30.30 in 5.6 mi South 4.6 mph - N/A   Scattered Clouds
5:50 AM 42.8 °F 40.1 °F 39.2 °F 87% 30.30 in 6.2 mi South 4.6 mph - N/A   Scattered Clouds
6:20 AM 44.6 °F 43.1 °F 39.2 °F 81% 30.30 in 6.2 mi South 3.5 mph - N/A   Scattered Clouds
6:50 AM 44.6 °F 43.1 °F 41.0 °F 87% 30.30 in 5.6 mi SSW 3.5 mph - N/A   Scattered Clouds
7:20 AM 44.6 °F 43.1 °F 41.0 °F 87% 30.33 in 5.0 mi SSW 3.5 mph - N/A   Scattered Clouds
7:50 AM 46.4 °F 45.2 °F 41.0 °F 81% 30.33 in 4.3 mi South 3.5 mph - N/A   Scattered Clouds
8:00 AM 46 °F - 41 °F 77% 30.34 in 4 mi South 3.5 mph - -   Mist
8:20 AM 46.4 °F - 41.0 °F 81% 30.33 in 3.7 mi Variable 1.2 mph - N/A   Scattered Clouds
8:50 AM 48.2 °F - 42.8 °F 82% 30.33 in 4.3 mi Calm Calm - N/A   Scattered Clouds
9:20 AM 50.0 °F - 42.8 °F 76% 30.33 in 5.6 mi NNE 3.5 mph - N/A   Scattered Clouds
9:50 AM 48.2 °F - 41.0 °F 76% 30.33 in 6.2 mi NNE 2.3 mph - N/A   Scattered Clouds
10:20 AM 50.0 °F - 42.8 °F 76% 30.30 in 6.2 mi Calm Calm - N/A   Scattered Clouds
10:50 AM 50.0 °F - 42.8 °F 76% 30.30 in 6.2 mi Variable 3.5 mph - N/A   Scattered Clouds
11:00 AM 51 °F - 42 °F 63% 30.32 in 12 mi NE 3.5 mph - -   Partly Cloudy
11:20 AM 50.0 °F - 41.0 °F 71% 30.30 in 6.2 mi ENE 5.8 mph - N/A   Scattered Clouds
11:50 AM 50.0 °F - 42.8 °F 76% 30.30 in 6.2 mi ENE 5.8 mph - N/A   Partly Cloudy
12:20 PM 50.0 °F - 41.0 °F 71% 30.27 in 6.2 mi NE 5.8 mph - N/A   Scattered Clouds
12:50 PM 50.0 °F - 41.0 °F 71% 30.27 in 6.2 mi East 5.8 mph - N/A   Scattered Clouds
1:20 PM 50.0 °F - 41.0 °F 71% 30.27 in 6.2 mi ENE 4.6 mph - N/A   Partly Cloudy
1:50 PM 50.0 °F - 41.0 °F 71% 30.27 in 6.2 mi Variable 2.3 mph - N/A   Scattered Clouds
2:00 PM 50 °F - 40 °F 60% 30.29 in 12 mi East 2.3 mph - -   Partly Cloudy
2:20 PM 50.0 °F - 41.0 °F 71% 30.27 in 6.2 mi Variable 2.3 mph - N/A   Scattered Clouds
2:50 PM 50.0 °F - 41.0 °F 71% 30.27 in 6.2 mi Calm Calm - N/A   Scattered Clouds
3:20 PM 50.0 °F - 41.0 °F 71% 30.27 in 6.2 mi Calm Calm - N/A   Scattered Clouds
3:50 PM 48.2 °F - 41.0 °F 76% 30.27 in 4.3 mi ESE 4.6 mph - N/A   Scattered Clouds
4:15 PM 46.4 °F - 39.2 °F 76% 30.27 in 2.5 mi Calm Calm - N/A   Scattered Clouds
4:20 PM 46.4 °F - 39.2 °F 76% 30.27 in 2.8 mi Variable 2.3 mph - N/A   Scattered Clouds
4:50 PM 46.4 °F 44.3 °F 39.2 °F 76% 30.30 in 3.7 mi South 4.6 mph - N/A   Scattered Clouds
5:00 PM 46 °F - 39 °F 69% 30.31 in 4 mi South 4.6 mph - -   Mist
5:20 PM 46.4 °F 43.5 °F 39.2 °F 76% 30.30 in 4.3 mi South 5.8 mph - N/A   Scattered Clouds
5:50 PM 46.4 °F 42.9 °F 39.2 °F 76% 30.30 in 4.3 mi SSE 6.9 mph - N/A   Scattered Clouds
6:20 PM 46.4 °F 42.9 °F 39.2 °F 76% 30.30 in 5.0 mi South 6.9 mph - N/A   Scattered Clouds
6:50 PM 46.4 °F 43.5 °F 41.0 °F 81% 30.30 in - South 5.8 mph - N/A   Clear
7:20 PM 44.6 °F 41.4 °F 41.0 °F 87% 30.30 in - South 5.8 mph - N/A   Clear
7:50 PM 46.4 °F 42.9 °F 41.0 °F 81% 30.30 in - South 6.9 mph - N/A   Clear
8:00 PM 46 °F - 40 °F 73% 30.32 in 12 mi South 6.9 mph - -  
8:20 PM 46.4 °F 42.9 °F 41.0 °F 81% 30.30 in - South 6.9 mph - N/A   Clear
8:50 PM 46.4 °F 42.9 °F 41.0 °F 81% 30.30 in - South 6.9 mph 18.4 mph N/A   Clear
9:20 PM 46.4 °F 42.9 °F 41.0 °F 81% 30.30 in - South 6.9 mph - N/A   Clear
9:50 PM 46.4 °F 42.9 °F 41.0 °F 81% 30.30 in - South 6.9 mph - N/A   Clear
10:20 PM 46.4 °F 43.5 °F 41.0 °F 81% 30.30 in - South 5.8 mph - N/A   Clear
10:50 PM 46.4 °F 44.3 °F 41.0 °F 81% 30.27 in - SSE 4.6 mph - N/A   Clear
11:00 PM 47 °F - 40 °F 70% 30.29 in 12 mi SSE 4.6 mph - -  
11:20 PM 42.8 °F 40.1 °F 37.4 °F 81% 30.27 in - South 4.6 mph - N/A   Clear
11:50 PM 44.6 °F 40.7 °F 39.2 °F 81% 30.27 in - South 6.9 mph - N/A   Clear